DW0407 Weather Reports


Display with metric or nautical units.
time (UTC)temp
F
wind
direction
speed
MPH
gust
MPH
rain 1hr
in
rain 24hr
in
rain mn
in
humidity
%
barometer
mb
20260504081527 42 280 0.0 0.0 0.00 0.00 0.00 88 1012.6
20260504050020 42 149 2.0 4.0 0.00 0.00 0.00 79 1013.1
20260504044526 43 148 0.0 2.0 0.00 0.00 0.00 76 1013.1
20260504043026 43 148 0.0 3.0 0.00 0.00 0.00 77 1013.2
20260504041508 45 150 2.0 5.0 0.00 0.00 0.00 74 1013.0
20260504040021 45 156 0.0 2.0 0.00 0.00 0.00 72 1012.8
20260504034520 46 156 0.0 3.0 0.00 0.00 0.00 71 1012.9
20260504033025 46 156 0.0 1.0 0.00 0.00 0.00 69 1012.7
20260504031527 46 142 2.0 5.0 0.00 0.00 0.00 70 1012.9
20260504030038 46 150 2.0 4.0 0.00 0.00 0.00 70 1012.7
20260504024516 48 148 2.0 4.0 0.00 0.00 0.00 65 1012.7
20260504023023 49 171 0.0 4.0 0.00 0.00 0.00 61 1012.7
20260504021528 50 150 1.0 5.0 0.00 0.00 0.00 61 1012.6
20260504020050 52 196 2.0 3.0 0.00 0.00 0.00 55 1012.5
20260504014528 52 215 1.0 3.0 0.00 0.00 0.00 56 1012.6
20260504013019 52 157 2.0 4.0 0.00 0.00 0.00 58 1012.5
20260504011523 54 180 1.0 3.0 0.00 0.00 0.00 52 1012.3
20260504004547 56 172 2.0 3.0 0.00 0.00 0.00 50 1012.2
20260504003050 57 202 0.0 0.0 0.00 0.00 0.00 45 1012.1
20260504001520 58 202 0.0 3.0 0.00 0.00 0.00 45 1011.9
20260503234542 59 288 2.0 7.0 0.00 0.00 0.00 43 1011.7
20260503233044 60 281 5.0 11.0 0.00 0.00 0.00 42 1011.6
20260503231520 61 288 4.0 12.0 0.00 0.00 0.00 42 1011.4
20260503230043 61 275 7.0 12.0 0.00 0.00 0.00 40 1011.3
20260503224527 61 270 8.0 13.0 0.00 0.00 0.00 40 1011.3
20260503223028 61 305 7.0 16.0 0.00 0.00 0.00 41 1011.4
20260503221529 61 299 7.0 13.0 0.00 0.00 0.00 41 1011.5
20260503220038 61 309 10.0 17.0 0.00 0.00 0.00 41 1011.5
20260503214524 61 288 9.0 15.0 0.00 0.00 0.00 42 1011.5
20260503213028 61 302 9.0 16.0 0.00 0.00 0.00 41 1011.6
20260503211525 61 305 10.0 20.0 0.00 0.00 0.00 40 1011.5
20260503210027 61 240 9.0 15.0 0.00 0.00 0.00 41 1011.6
20260503204539 60 292 12.0 23.0 0.00 0.00 0.00 42 1011.5
20260503203013 60 327 11.0 23.0 0.00 0.00 0.00 43 1011.6
20260503201508 60 277 13.0 18.0 0.00 0.00 0.00 40 1011.7
20260503200015 60 272 9.0 18.0 0.00 0.00 0.00 42 1012.0
20260503194523 60 275 16.0 22.0 0.00 0.00 0.00 40 1012.1
20260503193029 59 310 11.0 20.0 0.00 0.00 0.00 41 1012.3
20260503191513 59 267 11.0 23.0 0.00 0.00 0.00 42 1012.5
20260503190013 58 352 6.0 20.0 0.00 0.00 0.00 42 1012.7
20260503184518 58 260 11.0 24.0 0.00 0.00 0.00 40 1012.9
20260503183035 57 281 15.0 22.0 0.00 0.00 0.00 41 1013.2
20260503181526 57 294 10.0 19.0 0.00 0.00 0.00 45 1013.2
20260503180016 56 302 16.0 22.0 0.00 0.00 0.00 44 1013.1
20260503174514 56 281 12.0 31.0 0.00 0.00 0.00 47 1013.3
20260503173018 55 311 11.0 23.0 0.00 0.00 0.00 47 1013.5
20260503171546 54 320 6.0 19.0 0.00 0.00 0.00 49 1013.7